Torna al catalogo

STARLINK-30767

AttivoComunicazioniVLEO
NORAD 58126·PAYLOAD·🇺🇸 United States

Lanciato Oct 22, 2023 da Cape Canaveral Space Force Station

Loading…

Prossimi Passaggi (prossime 24 ore)

TLE

AggiornatoSource: CelesTrak SupGP

Epoca: Sep 14, 2026, 21:04 UTC

1 58126C 23162J   26257.87826389 -.00007711  00000+0 -27938-3 0  2575
2 58126  43.0005 140.8468 0001393 267.5435 275.5048 15.27572478    15

Traccia STARLINK-30767 in tempo reale con AllMySat

Download on the App Store